Regional Weather Roundup
Issued by NWS Boston, MA

Current Version | Previous Version | Text Only | Print | Product List | Glossary Off
Versions: 1 2 3 4 5 6 7 8 9 10 11 12 13 14 15 16 17 18 19 20 21 22 23 24 25 26 27 28 29 30 31 32 33 34 35 36 37 38 39 40 41 42 43 44 45 46 47 48 49 50
000 ASUS41 KBOX 180410 RWRBOX REGIONAL WEATHER ROUNDUP NATIONAL WEATHER SERVICE TAUNTON MA 1200 AM EDT WED OCT 18 2017 NOTE: "FAIR" INDICATES FEW OR NO CLOUDS BELOW 12,000 FEET WITH NO SIGNIFICANT WEATHER AND/OR OBSTRUCTIONS TO VISIBILITY. MAZALL-180500- EASTERN MASSACHUSETTS CITY SKY/WX TMP DP RH WIND PRES REMARKS BOSTON CLEAR 48 38 68 SW16G22 30.23F BEVERLY CLEAR 47 36 65 SW9 30.22S LAWRENCE CLEAR 47 35 63 S7 30.23S BEDFORD CLEAR 44 34 67 SW5 30.22S BLUE HILL N/A 45 36 70 SW16 30.22F NORWOOD CLEAR 46 38 73 SW3 30.24F MARSHFIELD CLEAR 48 39 71 SW8G14 30.24F PLYMOUTH CLEAR 44 37 76 SW3 30.26F TAUNTON CLEAR 37 35 92 CALM 30.25F NEW BEDFORD CLEAR 38 36 92 CALM 30.25F $$ MAZALL-180500- CAPE COD AND THE ISLANDS CITY SKY/WX TMP DP RH WIND PRES REMARKS FALMOUTH CLEAR 43 39 87 SW3 30.27F HYANNIS CLEAR 50 43 77 SW9 30.25F CHATHAM CLEAR 48 42 80 W5 30.27F PROVINCETOWN CLEAR 52 42 69 SW17 30.25F NANTUCKET CLEAR 49 42 77 W9 30.27F MARTHAS VNYRD CLEAR 46 39 76 W6 30.27F $$ MAZALL-180500- CENTRAL AND WESTERN MASSACHUSETTS CITY SKY/WX TMP DP RH WIND PRES REMARKS WORCESTER CLEAR 45 33 63 SW17 30.21F FITCHBURG CLEAR 46 36 68 S5 30.21F ORANGE CLEAR 35 34 96 CALM 30.23R SPRINGFIELD CLEAR 42 36 80 S6 30.23S WESTFIELD CLEAR 40 35 83 S6 30.24S NORTH ADAMS CLEAR 35 33 92 CALM 30.24R PITTSFIELD CLEAR 38 33 82 CALM 30.22R $$ RIZALL-180500- RHODE ISLAND CITY SKY/WX TMP DP RH WIND PRES REMARKS PROVIDENCE CLEAR 47 40 76 SW6 30.27F NEWPORT CLEAR 51 41 68 CALM 30.26F BLOCK ISLAND CLEAR 53 43 68 W12 30.28F SMITHFIELD CLEAR 42 38 85 SW3 30.25F WESTERLY CLEAR 55 42 61 SW6 30.27F $$ CTZALL-180500- CONNECTICUT CITY SKY/WX TMP DP RH WIND PRES REMARKS BRADLEY INTL CLEAR 45 37 73 S7 30.25S HARTFORD CLEAR 46 39 76 S5 30.26S BRIDGEPORT CLEAR 57 43 59 SW17 30.27F DANBURY CLEAR 46 39 76 W6 30.28F GROTON CLEAR 55 43 63 SW13 30.26F NEW HAVEN CLEAR 58 41 53 SW9G18 30.27F CHESTER FAIR 50 41 71 VRB5 30.26F MERIDEN CLEAR 38 37 97 CALM 30.27F WILLIMANTIC CLEAR 38 35 89 CALM 30.27F OXFORD CLEAR 45 39 79 CALM 30.27F $$ MEZ002-015-021-024-NHZ003-005-008-011-012-014-VTZ005-008-180500- NORTHERN NEW ENGLAND CITY SKY/WX TMP DP RH WIND PRES REMARKS PORTLAND ME CLEAR 47 31 53 SW9G18 30.17S BANGOR ME CLOUDY 48 38 68 SW7 30.12F CONCORD NH CLEAR 36 32 85 CALM 30.19F MANCHESTER NH CLEAR 47 33 58 S7 30.19S NASHUA NH CLEAR 43 34 70 SE5 30.22S PORTSMOUTH NH CLEAR 43 34 71 SW8 30.18F JAFFREY NH CLEAR 45 35 68 S8 30.20S KEENE NH CLEAR 34 31 88 S8G18 30.22S WCI 27 BURLINGTON VT CLOUDY 52 33 48 S16G25 30.09F MT. WASHINGTON MOCLDY 28 25 86 W55 N/A WCI 8 $$ NYZ052-076-180500- EASTERN NEW YORK CITY SKY/WX TMP DP RH WIND PRES REMARKS ALBANY PTCLDY 46 34 62 S3 30.22S NEW YORK CITY CLEAR 55 38 52 SW9 30.28F $$ ANZALL-180500- MARINE OBSERVATIONS STATION/POSITION TIME TEMP WIND PRES VSBY WAVE AIR SEA DIR/SP/G HT/PER (UTC) (F) (DEG/KT/KT) (MB) (MI) (FT/S) BOSTON BUOY 0350 53 59 210/ 19/ 25 1022.2F 3/ 3 BUZZARDS BAY 0300 55 240/ 18/ 19 1025.5F NANTUCKET SOUND 0350 54 62 260/ 14/ 17 1024.6F 2/ 3 MASS BAY-STELLWA 0304 54 60 220/ 17/ 21 1022.5F 4/ 4 ISLE OF SHOALS 0400 51 230/ 24/ 26 1022.1F S OF BLOCK IS NOT AVBL $$ ......................KEY......................... SKY/WX - SKY CONDITION/PRESENT WEATHER TMP - TEMPERATURE IN FAHRENHEIT DWPT - DEWPOINT IN FAHRENHEIT RH - RELATIVE HUMIDITY IN PERCENT WIND - DIRECTION AND SPEED IN MPH PRES - MEAN SEA LEVEL PRESSURE IN INCHES OF HG WCI - WIND CHILL INDEX VSB - VISIBILITY IN MILES HX - HEAT INDEX TC - TEMPERATURE IN CELSIUS VRB - VARIABLE WIND DIRECTION N/A - NOT AVAILABLE

USA.gov is the U.S. government's official web portal to all federal, state and local government web resources and services.